TimeCST,TemperatureF,Dew PointF,Humidity,Sea Level PressureIn,VisibilityMPH,Wind Direction,Wind SpeedMPH,Gust SpeedMPH,PrecipitationIn,Events,Conditions,WindDirDegrees,DateUTC
12:01 AM,37.4,35.6,93,30.18,10.0,NNW,11.5,-,0.00,Rain,Light Rain,330,2013-12-10 06:01:00
12:27 AM,37.4,35.6,93,30.18,5.0,NW,5.8,-,0.01,Rain,Light Rain,320,2013-12-10 06:27:00
12:54 AM,37.0,35.1,93,30.19,4.0,NW,6.9,-,0.01,,Overcast,320,2013-12-10 06:54:00
1:03 AM,37.4,35.6,93,30.20,9.0,NW,5.8,-,N/A,,Overcast,320,2013-12-10 07:03:00
1:54 AM,36.0,34.0,93,30.23,10.0,NW,6.9,-,0.00,,Overcast,310,2013-12-10 07:54:00
2:28 AM,35.6,33.8,93,30.23,9.0,NW,9.2,-,N/A,,Overcast,320,2013-12-10 08:28:00
2:54 AM,35.1,34.0,96,30.23,10.0,NW,5.8,-,N/A,,Overcast,310,2013-12-10 08:54:00
3:44 AM,35.6,32.0,87,30.24,10.0,NW,8.1,17.3,N/A,,Overcast,310,2013-12-10 09:44:00
3:54 AM,35.1,32.0,89,30.25,10.0,NW,9.2,-,N/A,,Overcast,310,2013-12-10 09:54:00
4:54 AM,34.0,32.0,92,30.28,10.0,NW,11.5,18.4,N/A,,Overcast,320,2013-12-10 10:54:00
5:54 AM,34.0,30.9,89,30.32,7.0,NW,12.7,20.7,N/A,,Overcast,320,2013-12-10 11:54:00
6:38 AM,33.8,30.2,87,30.35,7.0,NW,12.7,20.7,N/A,,Overcast,320,2013-12-10 12:38:00
6:54 AM,34.0,30.0,85,30.37,7.0,NW,10.4,23.0,N/A,,Overcast,320,2013-12-10 12:54:00
7:54 AM,33.1,28.9,85,30.40,10.0,NNW,12.7,19.6,N/A,,Overcast,340,2013-12-10 13:54:00
8:22 AM,33.8,28.4,81,30.41,10.0,NNW,13.8,20.7,N/A,,Overcast,330,2013-12-10 14:22:00
8:54 AM,34.0,28.0,79,30.41,10.0,North,10.4,-,N/A,,Overcast,350,2013-12-10 14:54:00
9:54 AM,36.0,28.9,76,30.41,10.0,North,13.8,18.4,N/A,,Overcast,360,2013-12-10 15:54:00
10:54 AM,37.0,28.9,73,30.42,10.0,North,12.7,-,N/A,,Scattered Clouds,10,2013-12-10 16:54:00
11:54 AM,39.9,28.0,63,30.40,10.0,NNE,9.2,-,N/A,,Partly Cloudy,30,2013-12-10 17:54:00
12:54 PM,43.0,28.9,58,30.38,10.0,NNE,10.4,18.4,N/A,,Scattered Clouds,20,2013-12-10 18:54:00
1:54 PM,44.1,28.0,53,30.35,10.0,NNE,10.4,-,N/A,,Scattered Clouds,20,2013-12-10 19:54:00
2:54 PM,45.0,28.0,52,30.35,10.0,North,10.4,-,N/A,,Scattered Clouds,10,2013-12-10 20:54:00
3:54 PM,45.0,28.0,52,30.35,10.0,NNE,12.7,-,N/A,,Partly Cloudy,20,2013-12-10 21:54:00
4:54 PM,41.0,28.0,60,30.36,10.0,NNE,4.6,-,N/A,,Partly Cloudy,30,2013-12-10 22:54:00
5:54 PM,35.1,28.9,78,30.36,10.0,Calm,Calm,-,N/A,,Clear,0,2013-12-10 23:54:00
6:54 PM,34.0,28.9,82,30.37,10.0,Calm,Calm,-,N/A,,Clear,0,2013-12-11 00:54:00
7:54 PM,30.9,28.0,89,30.37,10.0,Calm,Calm,-,N/A,,Clear,0,2013-12-11 01:54:00
8:54 PM,30.0,27.0,88,30.37,10.0,Calm,Calm,-,N/A,,Clear,0,2013-12-11 02:54:00
9:54 PM,30.0,27.0,88,30.38,10.0,Calm,Calm,-,N/A,,Clear,0,2013-12-11 03:54:00
10:54 PM,28.4,26.6,93,30.38,10.0,Calm,Calm,-,N/A,,Clear,0,2013-12-11 04:54:00
11:54 PM,28.0,25.0,88,30.39,10.0,Calm,Calm,-,N/A,,Clear,0,2013-12-11 05:54:00